CDT,Max TemperatureF,Mean TemperatureF,Min TemperatureF,Max Dew PointF,MeanDew PointF,Min DewpointF,Max Humidity, Mean Humidity, Min Humidity, Max Sea Level PressureIn, Mean Sea Level PressureIn, Min Sea Level PressureIn, Max VisibilityMiles, Mean VisibilityMiles, Min VisibilityMiles, Max Wind SpeedMPH, Mean Wind SpeedMPH, Max Gust SpeedMPH,PrecipitationIn, CloudCover, Events, WindDirDegrees
2012-9-1,62,56,50,52,49,46,88,76,59,30.48,30.20,29.70,7,6,4,24,8,,0.00,6,,152
2012-9-2,71,58,46,54,49,45,94,71,43,30.48,30.25,29.73,10,7,5,14,5,,0.00,5,Rain-Thunderstorm,143
2012-9-3,71,58,46,52,48,43,94,70,38,30.49,30.26,29.77,10,8,6,13,4,,0.00,4,,272
2012-9-4,69,56,44,52,47,41,93,73,37,30.47,30.25,29.81,7,4,2,15,3,,0.00,5,,320
2012-9-5,73,58,42,54,46,41,93,69,33,30.42,30.20,29.71,10,6,2,12,2,,0.00,4,,82
2012-9-6,75,62,50,54,49,37,94,73,25,30.44,30.21,29.65,10,5,0,9,3,,0.00,5,Fog,307
2012-9-7,71,56,42,52,44,37,88,66,29,30.44,30.18,29.70,8,6,3,8,2,,0.00,3,,49
2012-9-8,73,60,46,52,47,37,88,68,27,30.40,30.15,29.68,8,5,2,13,3,,1.35,5,Rain-Thunderstorm,128
2012-9-9,68,60,53,50,49,46,88,70,49,30.43,30.20,29.73,7,5,3,16,8,,6.05,7,Rain-Thunderstorm,97
2012-9-10,69,58,48,52,48,45,87,70,43,30.43,30.20,29.72,12,6,1,17,6,,0.00,6,Rain-Thunderstorm,75
2012-9-11,66,58,50,61,49,46,88,73,56,30.44,30.20,29.75,10,7,4,17,6,,6.55,5,Rain-Thunderstorm,146
2012-9-12,68,60,51,52,49,46,88,75,49,30.46,30.22,29.78,7,6,3,20,8,,0.00,6,Rain,131
2012-9-13,69,58,48,50,47,37,94,71,38,30.46,30.23,29.82,8,5,2,17,3,,0.00,5,,160
2012-9-14,71,58,46,50,47,43,93,74,43,30.47,30.26,29.84,7,4,2,15,3,,0.00,6,Rain-Thunderstorm,60
2012-9-15,69,60,50,52,48,43,94,71,38,30.48,30.25,29.74,12,6,3,13,4,,0.15,6,Rain-Thunderstorm,100
2012-9-16,66,58,51,52,49,46,94,78,49,30.47,30.25,29.82,7,5,3,15,2,,2.00,7,Rain-Thunderstorm,350
2012-9-17,69,60,51,52,50,48,88,77,49,30.41,30.20,29.68,7,5,3,13,4,,4.55,7,Rain-Thunderstorm,216
2012-9-18,68,60,51,50,47,41,94,68,46,30.42,30.18,29.69,7,5,2,13,3,,0.00,7,Rain,55
2012-9-19,66,55,44,45,41,37,81,62,42,30.46,30.23,29.76,8,7,5,16,7,,0.00,5,,41
2012-9-20,68,56,44,48,43,36,93,67,37,30.43,30.21,29.76,7,6,2,13,7,,0.00,5,,67
2012-9-21,68,55,42,50,45,39,93,73,40,30.37,30.16,29.75,7,4,2,13,5,,0.00,5,,344
2012-9-22,68,58,48,50,47,41,87,70,46,30.43,30.18,29.75,6,4,2,18,4,,0.55,6,Rain,116
2012-9-23,68,59,50,48,47,46,88,70,46,30.48,30.24,29.80,7,6,3,16,6,,0.00,5,,43
2012-9-24,68,59,50,48,48,46,94,71,46,30.47,30.22,29.72,12,8,3,16,7,,0.00,6,,31
2012-9-25,69,60,50,52,49,45,94,76,40,30.40,30.18,29.69,10,7,5,14,6,,0.00,5,Rain-Thunderstorm,42
2012-9-26,64,55,46,55,50,45,94,80,59,30.42,30.21,29.78,6,4,0,15,3,,0.25,6,Fog-Rain-Thunderstorm,130
2012-9-27,69,60,51,54,51,48,94,78,49,30.44,30.21,29.70,7,4,2,14,2,,3.25,7,Rain-Thunderstorm,342
2012-9-28,69,58,48,52,50,46,93,77,49,30.42,30.19,29.69,10,6,2,14,3,,0.75,7,Rain-Thunderstorm,105
2012-9-29,69,60,51,54,51,45,94,80,40,30.39,30.18,29.65,7,4,0,10,4,,0.75,6,Fog-Rain-Thunderstorm,322
2012-9-30,66,58,51,55,52,50,94,83,64,30.35,30.13,29.67,5,2,0,12,3,,0.85,6,Fog-Rain-Thunderstorm,275